When you browse on this site, cookies collect data to enhance your experience and personalize the content and advertising you see.
Visit our Privacy Policy to learn more. By continuing to use the site, you agree to this use of cookies and data.
  • In United Kingdom
  • List of Countries
  • For 7 days
  • Water Temperature
  • Weather Map
  • Weather Widgets
  • user-avatar
    Login

    Hourly Weather Pet'kiv

    Today, 22 September, Sunday

    Time Temperature Precipitation Wind Pressure Humidity
    00:00 +8°C° 0.5 mm 7 mps 746 mmHg 89%
    01:00 +9°C° 0.5 mm 7 mps 745 mmHg 91%
    02:00 +9°C° 0.5 mm 7 mps 745 mmHg 93%
    03:00 +10°C° 0.4 mm 7 mps 744 mmHg 92%
    04:00 +10°C° 0.4 mm 8 mps 744 mmHg 91%
    05:00 +11°C° 0.4 mm 8 mps 744 mmHg 91%
    06:00 +11°C° 0.1 mm 8 mps 744 mmHg 89%
    07:00 +11°C° 0.1 mm 8 mps 744 mmHg 88%
    08:00 +11°C° 0.1 mm 8 mps 745 mmHg 87%
    09:00 +12°C° 0 mm 8 mps 745 mmHg 79%
    10:00 +13°C° 0 mm 8 mps 745 mmHg 72%
    11:00 +15°C° 0 mm 8 mps 745 mmHg 64%
    12:00 +16°C° 0 mm 8 mps 745 mmHg 61%
    13:00 +16°C° 0 mm 8 mps 745 mmHg 57%
    14:00 +17°C° 0 mm 8 mps 745 mmHg 54%
    15:00 +16°C° 0.1 mm 8 mps 745 mmHg 57%
    16:00 +16°C° 0.1 mm 7 mps 745 mmHg 61%
    17:00 +15°C° 0.1 mm 6 mps 745 mmHg 64%
    18:00 +14°C° 0.4 mm 6 mps 745 mmHg 71%
    19:00 +13°C° 0.4 mm 5 mps 745 mmHg 78%
    20:00 +10°C° 0.4 mm 5 mps 746 mmHg 85%
    21:00 +10°C° 0.4 mm 4 mps 746 mmHg 85%
    22:00 +8°C° 0.4 mm 4 mps 746 mmHg 85%
    23:00 +7°C° 0.4 mm 4 mps 747 mmHg 85%

    Tomorrow, 23 September, Monday

    Time Temperature Precipitation Wind Pressure Humidity
    00:00 +8°C° 0.3 mm 3 mps 747 mmHg 84%
    01:00 +8°C° 0.3 mm 3 mps 748 mmHg 83%
    02:00 +7°C° 0.3 mm 3 mps 748 mmHg 82%
    03:00 +5°C° 0 mm 3 mps 749 mmHg 84%
    04:00 +4°C° 0 mm 3 mps 749 mmHg 87%
    05:00 +4°C° 0 mm 2 mps 749 mmHg 89%
    06:00 +5°C° 0 mm 2 mps 750 mmHg 84%
    07:00 +4°C° 0 mm 3 mps 750 mmHg 78%
    08:00 +5°C° 0 mm 3 mps 751 mmHg 72%
    09:00 +7°C° 0 mm 3 mps 751 mmHg 63%
    10:00 +9°C° 0 mm 3 mps 751 mmHg 54%
    11:00 +10°C° 0 mm 3 mps 752 mmHg 45%
    12:00 +11°C° 0 mm 3 mps 751 mmHg 41%
    13:00 +12°C° 0 mm 2 mps 751 mmHg 38%
    14:00 +13°C° 0 mm 2 mps 751 mmHg 34%
    15:00 +12°C° 0 mm 2 mps 751 mmHg 37%
    16:00 +12°C° 0 mm 2 mps 751 mmHg 40%
    17:00 +10°C° 0 mm 2 mps 751 mmHg 43%
    18:00 +9°C° 0 mm 2 mps 751 mmHg 46%
    19:00 +7°C° 0 mm 2 mps 751 mmHg 49%
    20:00 +6°C° 0 mm 2 mps 752 mmHg 53%
    21:00 +6°C° 0 mm 2 mps 752 mmHg 55%
    22:00 +5°C° 0 mm 2 mps 752 mmHg 57%
    23:00 +4°C° 0 mm 2 mps 752 mmHg 60%

    Day after tomorrow, 24 September, Tuesday

    Time Temperature Precipitation Wind Pressure Humidity
    00:00 +4°C° 0 mm 2 mps 752 mmHg 61%
    01:00 +4°C° 0 mm 2 mps 752 mmHg 63%
    02:00 +4°C° 0 mm 1 mps 752 mmHg 64%
    03:00 +4°C° 0 mm 1 mps 752 mmHg 65%
    04:00 +4°C° 0 mm 1 mps 752 mmHg 66%
    05:00 +4°C° 0 mm 1 mps 751 mmHg 67%
    06:00 +5°C° 0 mm 1 mps 751 mmHg 62%
    07:00 +5°C° 0 mm 2 mps 751 mmHg 57%
    08:00 +7°C° 0 mm 2 mps 751 mmHg 52%
    09:00 +8°C° 0 mm 2 mps 751 mmHg 47%
    10:00 +10°C° 0 mm 2 mps 751 mmHg 42%
    11:00 +12°C° 0 mm 2 mps 751 mmHg 37%
    12:00 +13°C° 0 mm 2 mps 751 mmHg 35%
    13:00 +13°C° 0 mm 1 mps 751 mmHg 34%
    14:00 +14°C° 0 mm 1 mps 750 mmHg 32%
    15:00 +13°C° 0 mm 2 mps 750 mmHg 35%
    16:00 +13°C° 0 mm 2 mps 750 mmHg 38%
    17:00 +12°C° 0 mm 2 mps 749 mmHg 41%
    18:00 +10°C° 0 mm 2 mps 749 mmHg 43%
    19:00 +8°C° 0 mm 3 mps 749 mmHg 46%
    20:00 +7°C° 0 mm 3 mps 749 mmHg 49%
    21:00 +7°C° 0 mm 3 mps 749 mmHg 50%
    22:00 +5°C° 0 mm 3 mps 749 mmHg 51%
    23:00 +5°C° 0 mm 3 mps 749 mmHg 52%

    25 September, Wednesday

    Time Temperature Precipitation Wind Pressure Humidity
    00:00 +5°C° 0 mm 3 mps 749 mmHg 52%
    01:00 +5°C° 0 mm 3 mps 749 mmHg 52%
    02:00 +5°C° 0 mm 3 mps 749 mmHg 52%
    03:00 +4°C° 0 mm 3 mps 749 mmHg 53%
    04:00 +4°C° 0 mm 3 mps 749 mmHg 54%
    05:00 +4°C° 0 mm 3 mps 749 mmHg 55%
    06:00 +5°C° 0 mm 3 mps 749 mmHg 53%
    07:00 +6°C° 0 mm 4 mps 749 mmHg 50%
    08:00 +7°C° 0 mm 4 mps 749 mmHg 47%
    09:00 +10°C° 0 mm 4 mps 749 mmHg 45%
    10:00 +13°C° 0 mm 4 mps 749 mmHg 44%
    11:00 +15°C° 0 mm 4 mps 749 mmHg 42%
    12:00 +17°C° 0 mm 4 mps 749 mmHg 43%
    13:00 +17°C° 0 mm 4 mps 748 mmHg 44%
    14:00 +18°C° 0 mm 4 mps 748 mmHg 45%
    15:00 +17°C° 0 mm 4 mps 747 mmHg 50%
    16:00 +17°C° 0 mm 3 mps 747 mmHg 54%
    17:00 +16°C° 0 mm 3 mps 747 mmHg 58%
    18:00 +14°C° 0 mm 4 mps 747 mmHg 60%
    19:00 +13°C° 0 mm 4 mps 747 mmHg 61%
    20:00 +13°C° 0 mm 5 mps 747 mmHg 63%
    21:00 +13°C° 0 mm 5 mps 747 mmHg 65%
    22:00 +13°C° 0 mm 5 mps 746 mmHg 68%
    23:00 +13°C° 0 mm 6 mps 746 mmHg 70%

    26 September, Thursday

    Time Temperature Precipitation Wind Pressure Humidity
    00:00 +12°C° 0 mm 5 mps 746 mmHg 70%
    01:00 +12°C° 0 mm 5 mps 746 mmHg 70%
    02:00 +12°C° 0 mm 5 mps 746 mmHg 70%
    03:00 +12°C° 0 mm 5 mps 746 mmHg 69%
    04:00 +12°C° 0 mm 5 mps 745 mmHg 68%
    05:00 +12°C° 0 mm 5 mps 745 mmHg 67%
    06:00 +13°C° 0 mm 5 mps 745 mmHg 65%
    07:00 +14°C° 0 mm 5 mps 745 mmHg 64%
    08:00 +14°C° 0 mm 5 mps 745 mmHg 62%
    09:00 +15°C° 0 mm 6 mps 745 mmHg 56%
    10:00 +17°C° 0 mm 6 mps 745 mmHg 50%
    11:00 +18°C° 0 mm 7 mps 745 mmHg 44%
    12:00 +17°C° 0.1 mm 6 mps 745 mmHg 51%
    13:00 +16°C° 0.1 mm 5 mps 745 mmHg 58%
    14:00 +15°C° 0.1 mm 5 mps 744 mmHg 64%
    15:00 +14°C° 0.2 mm 4 mps 744 mmHg 72%
    16:00 +13°C° 0.2 mm 4 mps 744 mmHg 79%
    17:00 +13°C° 0.2 mm 4 mps 744 mmHg 86%
    18:00 +13°C° 0.4 mm 4 mps 743 mmHg 89%
    19:00 +13°C° 0.4 mm 3 mps 743 mmHg 91%
    20:00 +12°C° 0.4 mm 3 mps 743 mmHg 94%
    21:00 +12°C° 0.3 mm 3 mps 743 mmHg 94%
    22:00 +13°C° 0.3 mm 2 mps 743 mmHg 95%
    23:00 +13°C° 0.3 mm 2 mps 743 mmHg 96%

    27 September, Friday

    Time Temperature Precipitation Wind Pressure Humidity
    00:00 +13°C° 0.3 mm 2 mps 743 mmHg 96%
    01:00 +13°C° 0.3 mm 2 mps 743 mmHg 97%
    02:00 +14°C° 0.3 mm 2 mps 742 mmHg 97%
    03:00 +14°C° 0.5 mm 2 mps 742 mmHg 97%
    04:00 +13°C° 0.5 mm 3 mps 742 mmHg 97%
    05:00 +13°C° 0.5 mm 3 mps 742 mmHg 97%
    06:00 +12°C° 0.3 mm 4 mps 742 mmHg 96%
    07:00 +12°C° 0.3 mm 4 mps 742 mmHg 95%
    08:00 +12°C° 0.3 mm 5 mps 742 mmHg 94%
    09:00 +12°C° 0.1 mm 5 mps 743 mmHg 93%
    10:00 +12°C° 0.1 mm 5 mps 743 mmHg 91%
    11:00 +12°C° 0.1 mm 5 mps 743 mmHg 90%
    12:00 +13°C° 0 mm 5 mps 743 mmHg 86%
    13:00 +14°C° 0 mm 5 mps 743 mmHg 82%
    14:00 +14°C° 0 mm 5 mps 743 mmHg 79%
    15:00 +14°C° 0.3 mm 5 mps 743 mmHg 80%
    16:00 +14°C° 0.3 mm 5 mps 743 mmHg 81%
    17:00 +14°C° 0.3 mm 5 mps 744 mmHg 83%
    18:00 +13°C° 0.2 mm 5 mps 744 mmHg 87%
    19:00 +12°C° 0.2 mm 4 mps 744 mmHg 91%
    20:00 +11°C° 0.2 mm 4 mps 745 mmHg 95%
    21:00 +10°C° 0 mm 4 mps 745 mmHg 95%
    22:00 +10°C° 0 mm 4 mps 746 mmHg 94%
    23:00 +8°C° 0 mm 4 mps 746 mmHg 94%
    Show more